TimeEDT,TemperatureF,Dew PointF,Humidity,Sea Level PressureIn,VisibilityMPH,Wind Direction,Wind SpeedMPH,Gust SpeedMPH,PrecipitationIn,Events,Conditions,WindDirDegrees,DateUTC
12:35 AM,59.9,54.0,81,29.88,10.0,Calm,Calm,-,N/A,Rain,Light Rain,0,2012-10-06 04:35:00
12:55 AM,58.6,54.0,84,29.88,7.0,Calm,Calm,-,N/A,Rain,Light Rain,0,2012-10-06 04:55:00
1:15 AM,59.2,54.1,83,29.88,10.0,SSE,3.5,-,N/A,,Overcast,150,2012-10-06 05:15:00
1:35 AM,59.2,54.1,83,29.87,10.0,Calm,Calm,-,N/A,,Overcast,0,2012-10-06 05:35:00
1:55 AM,59.2,54.0,83,29.86,10.0,Calm,Calm,-,N/A,,Overcast,0,2012-10-06 05:55:00
2:15 AM,59.0,54.0,83,29.86,10.0,South,3.5,-,N/A,,Overcast,170,2012-10-06 06:15:00
2:35 AM,58.5,54.0,85,29.85,10.0,South,3.5,-,N/A,,Overcast,180,2012-10-06 06:35:00
2:55 AM,58.6,54.1,85,29.84,10.0,Calm,Calm,-,N/A,,Overcast,0,2012-10-06 06:55:00
3:15 AM,58.1,54.1,87,29.84,10.0,Calm,Calm,-,N/A,,Mostly Cloudy,0,2012-10-06 07:15:00
3:35 AM,58.6,54.5,86,29.83,10.0,South,3.5,-,N/A,,Overcast,180,2012-10-06 07:35:00
3:55 AM,59.2,54.5,84,29.82,10.0,Calm,Calm,-,N/A,,Overcast,0,2012-10-06 07:55:00
4:15 AM,59.0,54.5,85,29.81,10.0,South,5.8,-,N/A,,Overcast,170,2012-10-06 08:15:00
4:35 AM,59.4,54.5,84,29.81,10.0,SSE,5.8,-,N/A,,Overcast,160,2012-10-06 08:35:00
4:55 AM,59.7,54.7,83,29.79,10.0,SSE,8.1,-,N/A,,Overcast,160,2012-10-06 08:55:00
5:15 AM,59.5,54.7,84,29.79,10.0,South,5.8,-,N/A,,Overcast,180,2012-10-06 09:15:00
5:35 AM,59.9,54.7,83,29.79,10.0,South,4.6,-,N/A,,Overcast,180,2012-10-06 09:35:00
5:55 AM,59.5,54.9,84,29.79,10.0,South,4.6,-,N/A,,Overcast,170,2012-10-06 09:55:00
6:15 AM,59.2,54.7,85,29.78,10.0,South,4.6,-,N/A,,Mostly Cloudy,170,2012-10-06 10:15:00
6:35 AM,58.6,54.7,87,29.77,10.0,South,3.5,-,N/A,,Mostly Cloudy,180,2012-10-06 10:35:00
6:55 AM,59.0,54.9,86,29.76,10.0,South,3.5,-,N/A,,Overcast,180,2012-10-06 10:55:00
7:15 AM,59.7,55.4,86,29.76,10.0,South,8.1,-,N/A,,Overcast,180,2012-10-06 11:15:00
7:35 AM,60.1,55.4,85,29.76,10.0,South,8.1,-,N/A,,Scattered Clouds,190,2012-10-06 11:35:00
7:55 AM,60.8,55.9,84,29.76,10.0,South,8.1,-,N/A,,Clear,180,2012-10-06 11:55:00
8:15 AM,61.5,56.7,84,29.76,10.0,South,6.9,-,N/A,,Scattered Clouds,170,2012-10-06 12:15:00
8:35 AM,61.7,56.5,83,29.76,10.0,South,8.1,-,N/A,,Mostly Cloudy,170,2012-10-06 12:35:00
8:55 AM,61.7,56.3,82,29.75,10.0,South,6.9,-,N/A,,Scattered Clouds,170,2012-10-06 12:55:00
9:35 AM,61.7,56.3,82,29.73,10.0,South,8.1,-,N/A,,Scattered Clouds,180,2012-10-06 13:35:00
9:55 AM,62.1,55.9,80,29.72,10.0,South,12.7,-,N/A,,Clear,170,2012-10-06 13:55:00
10:15 AM,62.2,55.6,79,29.71,10.0,South,10.4,16.1,N/A,,Clear,180,2012-10-06 14:15:00
10:35 AM,62.6,55.4,77,29.71,10.0,South,9.2,-,N/A,,Scattered Clouds,180,2012-10-06 14:35:00
10:55 AM,63.5,55.4,75,29.71,10.0,South,8.1,-,N/A,,Mostly Cloudy,190,2012-10-06 14:55:00
11:15 AM,63.5,55.4,75,29.70,10.0,South,6.9,-,N/A,,Overcast,190,2012-10-06 15:15:00
11:35 AM,63.5,55.2,74,29.69,10.0,South,9.2,-,N/A,,Overcast,180,2012-10-06 15:35:00
11:55 AM,62.6,55.9,79,29.70,7.0,West,8.1,-,N/A,Rain,Rain,260,2012-10-06 15:55:00
12:15 PM,57.4,53.4,87,29.71,3.0,West,15.0,20.7,N/A,Rain,Heavy Rain,280,2012-10-06 16:15:00
12:35 PM,55.4,51.3,86,29.71,5.0,WNW,11.5,-,N/A,Rain,Rain,300,2012-10-06 16:35:00
12:55 PM,54.5,50.2,85,29.72,10.0,WNW,11.5,-,N/A,,Drizzle,290,2012-10-06 16:55:00
1:15 PM,53.2,49.3,86,29.72,4.0,WNW,13.8,18.4,N/A,Rain,Rain,290,2012-10-06 17:15:00
1:35 PM,52.7,48.9,87,29.73,5.0,WNW,10.4,18.4,N/A,Rain,Rain,290,2012-10-06 17:35:00
1:55 PM,52.2,48.0,86,29.75,7.0,WNW,9.2,17.3,N/A,Rain,Light Rain,290,2012-10-06 17:55:00
2:15 PM,50.9,45.9,83,29.74,7.0,WNW,15.0,24.2,N/A,,Light Drizzle,300,2012-10-06 18:15:00
2:35 PM,50.7,46.0,84,29.76,7.0,WNW,13.8,19.6,N/A,Rain,Light Rain,300,2012-10-06 18:35:00
2:55 PM,50.5,45.7,83,29.77,7.0,WNW,17.3,23.0,N/A,Rain,Rain,290,2012-10-06 18:55:00
3:15 PM,50.2,45.5,84,29.77,10.0,WNW,11.5,20.7,N/A,,Overcast,290,2012-10-06 19:15:00
3:35 PM,50.0,45.0,83,29.78,10.0,West,13.8,23.0,N/A,,Overcast,280,2012-10-06 19:35:00
3:55 PM,50.0,45.1,83,29.79,10.0,West,9.2,-,N/A,,Overcast,280,2012-10-06 19:55:00
4:15 PM,50.0,44.6,82,29.79,10.0,WNW,9.2,16.1,N/A,,Overcast,290,2012-10-06 20:15:00
4:35 PM,49.6,43.9,81,29.79,10.0,West,9.2,16.1,N/A,,Light Drizzle,280,2012-10-06 20:35:00
4:55 PM,50.0,44.8,82,29.79,10.0,WNW,3.5,-,N/A,,Overcast,300,2012-10-06 20:55:00
5:15 PM,50.0,44.6,82,29.80,10.0,West,5.8,-,N/A,,Overcast,270,2012-10-06 21:15:00
5:35 PM,50.4,45.1,82,29.81,10.0,WSW,4.6,-,N/A,,Mostly Cloudy,250,2012-10-06 21:35:00
5:55 PM,50.0,45.0,83,29.82,10.0,Calm,Calm,-,N/A,,Mostly Cloudy,0,2012-10-06 21:55:00
6:15 PM,50.0,44.6,82,29.82,10.0,Calm,Calm,-,N/A,,Overcast,0,2012-10-06 22:15:00
6:35 PM,49.3,43.9,82,29.82,10.0,Calm,Calm,-,N/A,,Mostly Cloudy,0,2012-10-06 22:35:00
6:55 PM,48.2,44.1,86,29.83,10.0,West,3.5,-,N/A,,Scattered Clouds,270,2012-10-06 22:55:00
7:15 PM,48.9,42.1,77,29.83,10.0,WSW,4.6,-,N/A,,Clear,250,2012-10-06 23:15:00
7:35 PM,48.2,42.1,79,29.83,10.0,West,4.6,-,N/A,,Clear,270,2012-10-06 23:35:00
7:55 PM,47.3,42.3,83,29.84,10.0,WSW,5.8,-,N/A,,Clear,250,2012-10-06 23:55:00
8:15 PM,47.3,40.8,78,29.84,10.0,WSW,4.6,-,N/A,,Scattered Clouds,250,2012-10-07 00:15:00
8:35 PM,46.6,40.1,78,29.85,10.0,West,3.5,-,N/A,,Scattered Clouds,270,2012-10-07 00:35:00
8:55 PM,46.6,39.6,77,29.85,10.0,WSW,3.5,-,N/A,,Clear,240,2012-10-07 00:55:00
9:15 PM,45.1,40.5,84,29.86,10.0,West,4.6,-,N/A,,Clear,260,2012-10-07 01:15:00
9:35 PM,46.2,39.0,76,29.86,10.0,West,9.2,-,N/A,,Clear,270,2012-10-07 01:35:00
9:55 PM,45.5,40.1,81,29.87,10.0,WNW,5.8,-,N/A,,Mostly Cloudy,290,2012-10-07 01:55:00
10:15 PM,45.5,39.4,79,29.88,10.0,West,3.5,-,N/A,,Scattered Clouds,280,2012-10-07 02:15:00
10:35 PM,44.6,38.5,79,29.90,10.0,WNW,5.8,-,N/A,,Clear,290,2012-10-07 02:35:00
10:55 PM,44.6,37.6,76,29.90,10.0,West,8.1,-,N/A,,Clear,270,2012-10-07 02:55:00
11:15 PM,44.6,36.5,73,29.91,10.0,West,9.2,-,N/A,,Clear,270,2012-10-07 03:15:00
11:35 PM,45.7,35.4,67,29.91,10.0,West,11.5,20.7,N/A,,Clear,260,2012-10-07 03:35:00
11:55 PM,45.0,35.4,69,29.91,10.0,West,13.8,18.4,N/A,,Clear,270,2012-10-07 03:55:00